GSAT-12

Last updated on Jan. 15, 2021, 6:31 a.m. UTC

1 37746U 11034A   21014.93225997 -.00000172  00000-0  00000-0 0  9991
2 37746   0.0947  99.5389 0006842 340.8181  92.8428  1.00272046 23658
UTC
Height (km)
Latitude
Longitude
Inclination
Orbital Period
UTC large
Height (km)
Speed (km/s)
/
Latitude / Longitude
Inclination (degrees)
Orbital Period (minutes)
Azimuth
Elevation
Range (km)
Doppler Factor
iOS Compass Heading
iOS Angle

Next 30 passes for location: Hong Kong

Rise time Rise Azimuth (degrees) Set time Set Azimuth (degrees) Duration Max altitude (degrees)

No matching passes for this satellites